Hourly Data Report for October 30, 2016

All times are specified in Local Standard Time (LST). Add 1 hour to adjust for Daylight Saving Time where and when it is observed.

SAINT JOHN A
NEW BRUNSWICK

45°18'58.000" N
65°53'24.000" W
108.80 m
8104901
71609
YSJ

Download Data

Hourly Data (October 2016)
Hourly Data Report for October 30, 2016
Temp Definition
°C
Dew Point Temp Definition
°C
Rel Hum Definition
%
Wind Dir Definition
10's deg

Wind Spd Definition
km/h
Visibility Definition
km
Stn Press Definition
kPa
Hmdx Definition


Wind Chill Definition


Weather Definition


TIME
00:00 Legend Double Dagger 6.7 6.7 100 25 9 8.1 99.30     Rain,Fog
01:00 Legend Double Dagger 6.5 6.5 100 36 2 16.1 99.21     LegendNANA
02:00 Legend Double Dagger 6.3 6.3 100 31 3 12.9 99.15     Cloudy
03:00 Legend Double Dagger 6.4 6.4 100 36 3 3.2 99.07     Fog
04:00 Legend Double Dagger 6.6 6.6 100 26 6 4.8 99.09     Fog
05:00 Legend Double Dagger 6.5 6.5 100 30 12 8.1 99.10     Fog
06:00 Legend Double Dagger 6.2 6.2 100 32 15 8.1 99.11     Fog
07:00 Legend Double Dagger 6.1 6.1 100 32 12 9.7 99.17     Fog
08:00 Legend Double Dagger 6.0 6.0 100 30 13 16.1 99.25     Cloudy
09:00 Legend Double Dagger 6.2 4.9 91 32 18 24.1 99.28     LegendNANA
10:00 Legend Double Dagger 6.2 5.0 92 29 18 24.1 99.29     LegendNANA
11:00 Legend Double Dagger 6.3 4.3 87 30 22 24.1 99.31     Cloudy
12:00 Legend Double Dagger 6.3 5.0 91 29 17 9.7 99.33     Fog
13:00 Legend Double Dagger 6.7 5.0 89 30 18 9.7 99.34     Fog
14:00 Legend Double Dagger 6.7 6.3 97 29 14 12.9 99.38     Cloudy
15:00 Legend Double Dagger 7.6 5.4 86 31 19 24.1 99.40     LegendNANA
16:00 Legend Double Dagger 7.5 5.5 87 31 18 24.1 99.45     LegendNANA
17:00 Legend Double Dagger 7.2 5.5 89 30 17 24.1 99.53     Mostly Cloudy
18:00 Legend Double Dagger 6.6 5.7 94 31 17 24.1 99.57     LegendNANA
19:00 Legend Double Dagger 6.3 6.0 98 32 13 24.1 99.63     LegendNANA
20:00 Legend Double Dagger 5.6 5.6 100 33 14 24.1 99.64     Mostly Cloudy
21:00 Legend Double Dagger 5.2 5.2 100 32 15 24.1 99.70     LegendNANA
22:00 Legend Double Dagger 5.4 5.4 100 36 2 24.1 99.74     LegendNANA
23:00 Legend Double Dagger 5.5 5.5 100 33 10 24.1 99.71     Mostly Cloudy

Notes on Data Quality.

Legend

  • E = Estimated
  • M = Missing
  • NA = Not Available
  • ‡ = Partner data that is not subject to review by the National Climate Archives
Date modified: